QPF
0.00 0.00 0.00 0.00 0.00 0.00 0.00 0.01 0.01 0.01 0.02 0.02 0.01 0.01 0.02 0.03 0.05 0.11 0.17 0.15 0.09 0.09 0.11 0.11 0.10 0.08 0.06 0.05 0.04 0.05 0.04 0.05 0.06 0.07 0.07 0.07 0.07 0.05 0.05 0.06 0.09 0.10 0.11 0.10 0.09 0.09 0.09 0.07 0.05
0.00 0.00 0.00 0.00 0.00 0.00 0.01 0.02 0.00 0.00 0.01 0.01 0.01 0.01 0.02 0.03 0.06 0.12 0.15 0.11 0.07 0.07 0.10 0.09 0.08 0.07 0.06 0.04 0.04 0.05 0.05 0.07 0.08 0.09 0.09 0.08 0.09 0.08 0.08 0.07 0.10 0.12 0.12 0.12 0.10 0.10 0.07 0.05 0.04
0.00 0.00 0.00 0.00 0.00 0.00 0.01 0.01 0.00 0.00 0.00 0.00 0.00 0.01 0.02 0.03 0.06 0.11 0.14 0.12 0.08 0.09 0.10 0.10 0.09 0.08 0.07 0.05 0.04 0.04 0.05 0.08 0.08 0.09 0.11 0.11 0.12 0.11 0.11 0.11 0.13 0.12 0.12 0.11 0.11 0.10 0.07 0.05 0.04
0.00 0.00 0.00 0.00 0.00 0.00 0.01 0.01 0.00 0.00 0.00 0.00 0.00 0.00 0.01 0.03 0.05 0.08 0.11 0.09 0.08 0.07 0.06 0.07 0.08 0.10 0.09 0.07 0.07 0.06 0.05 0.07 0.09 0.09 0.09 0.10 0.12 0.16 0.15 0.15 0.15 0.15 0.13 0.13 0.13 0.12 0.08 0.06 0.06
0.00 0.00 0.00 0.00 0.00 0.00 0.00 0.00 0.01 0.01 0.01 0.00 0.00 0.00 0.01 0.03 0.04 0.05 0.06 0.05 0.04 0.04 0.05 0.06 0.06 0.08 0.09 0.09 0.07 0.07 0.06 0.08 0.09 0.08 0.09 0.10 0.14 0.18 0.18 0.19 0.18 0.15 0.14 0.15 0.16 0.13 0.09 0.07 0.07
0.00 0.00 0.00 0.00 0.00 0.00 0.00 0.01 0.01 0.00 0.00 0.00 0.00 0.00 0.02 0.03 0.03 0.03 0.03 0.03 0.02 0.02 0.02 0.05 0.06 0.06 0.07 0.06 0.07 0.08 0.07 0.09 0.10 0.10 0.09 0.11 0.12 0.16 0.16 0.15 0.12 0.11 0.14 0.19 0.18 0.11 0.07 0.06 0.04
0.00 0.00 0.00 0.00 0.00 0.00 0.00 0.00 0.00 0.00 0.00 0.00 0.00 0.00 0.01 0.02 0.02 0.02 0.02 0.02 0.02 0.02 0.02 0.03 0.02 0.03 0.03 0.04 0.04 0.07 0.08 0.10 0.12 0.11 0.10 0.13 0.11 0.11 0.11 0.14 0.12 0.13 0.20 0.28 0.19 0.12 0.08 0.05 0.03
0.00 0.00 0.00 0.00 0.00 0.00 0.00 0.00 0.00 0.00 0.00 0.00 0.00 0.00 0.01 0.01 0.01 0.01 0.01 0.01 0.01 0.02 0.02 0.01 0.01 0.02 0.02 0.03 0.04 0.05 0.06 0.08 0.10 0.10 0.13 0.18 0.14 0.13 0.14 0.15 0.14 0.16 0.23 0.24 0.15 0.11 0.08 0.05 0.04
0.00 0.00 0.00 0.00 0.00 0.00 0.00 0.00 0.00 0.00 0.00 0.00 0.00 0.00 0.00 0.00 0.00 0.00 0.01 0.01 0.00 0.01 0.01 0.01 0.01 0.02 0.02 0.02 0.02 0.03 0.04 0.05 0.07 0.10 0.15 0.17 0.20 0.22 0.17 0.14 0.14 0.16 0.18 0.15 0.10 0.07 0.05 0.04 0.04
0.00 0.00 0.00 0.00 0.00 0.00 0.00 0.00 0.00 0.00 0.00 0.00 0.00 0.00 0.00 0.00 0.00 0.00 0.00 0.00 0.00 0.00 0.00 0.00 0.01 0.01 0.01 0.00 0.02 0.04 0.02 0.03 0.05 0.09 0.13 0.11 0.12 0.17 0.16 0.15 0.14 0.16 0.15 0.12 0.08 0.06 0.04 0.03 0.04
0.00 0.00 0.00 0.00 0.00 0.00 0.00 0.00 0.00 0.00 0.00 0.00 0.00 0.00 0.00 0.00 0.00 0.00 0.00 0.00 0.00 0.00 0.00 0.00 0.00 0.00 0.00 0.00 0.01 0.01 0.02 0.02 0.02 0.04 0.06 0.06 0.05 0.07 0.10 0.13 0.15 0.14 0.12 0.09 0.06 0.05 0.03 0.02 0.03
0.00 0.00 0.00 0.00 0.00 0.00 0.00 0.00 0.00 0.00 0.00 0.00 0.00 0.00 0.00 0.00 0.00 0.00 0.00 0.00 0.00 0.00 0.00 0.00 0.00 0.00 0.00 0.00 0.00 0.01 0.01 0.02 0.01 0.02 0.03 0.04 0.05 0.06 0.07 0.08 0.09 0.08 0.08 0.08 0.04 0.04 0.03 0.02 0.01
0.00 0.00 0.00 0.00 0.00 0.00 0.00 0.00 0.00 0.00 0.00 0.00 0.00 0.00 0.00 0.00 0.00 0.00 0.00 0.00 0.00 0.00 0.00 0.01 0.00 0.00 0.01 0.01 0.01 0.01 0.01 0.01 0.02 0.03 0.03 0.04 0.05 0.05 0.04 0.05 0.06 0.04 0.04 0.04 0.05 0.04 0.04 0.05 0.04
0.00 0.00 0.00 0.00 0.00 0.00 0.00 0.00 0.00 0.00 0.00 0.00 0.00 0.00 0.00 0.00 0.00 0.00 0.00 0.00 0.00 0.00 0.00 0.01 0.00 0.00 0.01 0.01 0.02 0.02 0.02 0.02 0.02 0.05 0.05 0.05 0.05 0.05 0.06 0.05 0.05 0.04 0.04 0.04 0.05 0.06 0.07 0.08 0.08
0.00 0.00 0.00 0.00 0.00 0.00 0.00 0.00 0.00 0.00 0.00 0.00 0.00 0.00 0.00 0.00 0.00 0.00 0.00 0.00 0.00 0.00 0.00 0.00 0.01 0.01 0.01 0.01 0.01 0.02 0.02 0.01 0.02 0.04 0.06 0.06 0.07 0.08 0.09 0.07 0.05 0.04 0.05 0.07 0.08 0.08 0.08 0.07 0.07
0.00 0.00 0.00 0.00 0.00 0.00 0.00 0.00 0.00 0.00 0.00 0.00 0.00 0.00 0.00 0.00 0.00 0.00 0.00 0.00 0.01 0.01 0.01 0.01 0.01 0.01 0.02 0.01 0.01 0.01 0.02 0.03 0.03 0.04 0.04 0.05 0.06 0.08 0.09 0.08 0.06 0.05 0.04 0.07 0.08 0.07 0.06 0.07 0.08
0.00 0.00 0.00 0.00 0.00 0.00 0.00 0.00 0.00 0.00 0.00 0.00 0.01 0.01 0.01 0.01 0.00 0.00 0.00 0.00 0.01 0.02 0.03 0.04 0.03 0.02 0.01 0.01 0.02 0.01 0.02 0.03 0.04 0.06 0.05 0.04 0.05 0.06 0.09 0.09 0.09 0.07 0.06 0.07 0.05 0.05 0.05 0.06 0.08
0.00 0.00 0.00 0.00 0.00 0.00 0.00 0.00 0.00 0.00 0.00 0.00 0.01 0.02 0.02 0.03 0.02 0.01 0.01 0.01 0.01 0.03 0.06 0.10 0.06 0.03 0.03 0.03 0.03 0.02 0.02 0.03 0.04 0.06 0.08 0.07 0.06 0.06 0.07 0.06 0.09 0.07 0.08 0.09 0.08 0.07 0.07 0.07 0.08
0.00 0.00 0.00 0.00 0.00 0.00 0.00 0.00 0.00 0.00 0.00 0.01 0.04 0.03 0.03 0.03 0.01 0.01 0.01 0.01 0.01 0.02 0.03 0.06 0.04 0.03 0.03 0.04 0.04 0.04 0.04 0.05 0.04 0.05 0.06 0.07 0.06 0.07 0.07 0.05 0.07 0.07 0.07 0.08 0.07 0.07 0.08 0.08 0.07
0.00 0.00 0.00 0.00 0.00 0.00 0.00 0.00 0.00 0.00 0.00 0.00 0.03 0.03 0.02 0.02 0.01 0.01 0.00 0.00 0.00 0.00 0.01 0.01 0.02 0.03 0.02 0.02 0.04 0.05 0.05 0.05 0.04 0.04 0.06 0.06 0.06 0.06 0.05 0.06 0.06 0.07 0.09 0.08 0.07 0.08 0.07 0.08 0.07
0.00 0.00 0.00 0.00 0.00 0.00 0.00 0.00 0.00 0.00 0.00 0.00 0.00 0.01 0.00 0.00 0.00 0.00 0.00 0.00 0.00 0.00 0.01 0.01 0.01 0.02 0.02 0.03 0.03 0.04 0.05 0.05 0.06 0.07 0.08 0.06 0.05 0.05 0.05 0.06 0.06 0.07 0.08 0.09 0.09 0.08 0.07 0.09 0.08
0.00 0.00 0.00 0.00 0.00 0.00 0.00 0.00 0.00 0.00 0.00 0.00 0.00 0.00 0.00 0.00 0.00 0.00 0.00 0.00 0.00 0.00 0.00 0.01 0.01 0.01 0.02 0.04 0.04 0.05 0.05 0.06 0.07 0.08 0.08 0.08 0.07 0.07 0.07 0.08 0.07 0.07 0.08 0.09 0.07 0.06 0.07 0.10 0.09
0.00 0.00 0.00 0.00 0.00 0.00 0.00 0.00 0.00 0.00 0.00 0.00 0.00 0.00 0.00 0.00 0.00 0.00 0.00 0.00 0.00 0.01 0.02 0.01 0.01 0.01 0.02 0.03 0.03 0.04 0.04 0.04 0.04 0.06 0.07 0.08 0.08 0.09 0.08 0.08 0.07 0.07 0.06 0.06 0.07 0.09 0.08 0.08 0.09
0.00 0.00 0.00 0.00 0.00 0.00 0.00 0.00 0.00 0.00 0.00 0.00 0.00 0.00 0.00 0.00 0.00 0.00 0.00 0.00 0.01 0.01 0.02 0.02 0.02 0.01 0.01 0.02 0.02 0.03 0.04 0.03 0.04 0.06 0.06 0.06 0.07 0.08 0.06 0.05 0.05 0.05 0.05 0.05 0.08 0.09 0.07 0.06 0.08
0.00 0.00 0.00 0.00 0.00 0.00 0.00 0.00 0.00 0.00 0.00 0.00 0.00 0.00 0.00 0.00 0.00 0.00 0.00 0.01 0.01 0.02 0.02 0.01 0.01 0.01 0.01 0.02 0.02 0.02 0.03 0.04 0.05 0.06 0.07 0.07 0.06 0.06 0.07 0.07 0.06 0.06 0.06 0.06 0.07 0.09 0.08 0.08 0.08
0.00 0.00 0.00 0.00 0.00 0.00 0.00 0.00 0.00 0.00 0.00 0.00 0.00 0.00 0.00 0.00 0.00 0.00 0.00 0.01 0.03 0.04 0.02 0.01 0.01 0.01 0.01 0.02 0.01 0.02 0.03 0.05 0.06 0.06 0.07 0.07 0.06 0.05 0.06 0.08 0.09 0.08 0.07 0.07 0.08 0.08 0.09 0.10 0.09
0.00 0.00 0.00 0.00 0.00 0.00 0.00 0.00 0.00 0.00 0.00 0.00 0.00 0.00 0.00 0.00 0.00 0.00 0.00 0.00 0.01 0.01 0.01 0.01 0.01 0.00 0.00 0.01 0.01 0.02 0.04 0.06 0.07 0.07 0.07 0.06 0.06 0.05 0.06 0.09 0.09 0.09 0.09 0.08 0.07 0.06 0.08 0.09 0.09
0.00 0.00 0.00 0.00 0.00 0.00 0.00 0.00 0.00 0.00 0.00 0.00 0.00 0.00 0.00 0.00 0.00 0.00 0.00 0.00 0.00 0.01 0.01 0.01 0.01 0.01 0.01 0.02 0.03 0.03 0.06 0.09 0.10 0.10 0.10 0.07 0.07 0.06 0.05 0.06 0.07 0.08 0.08 0.07 0.08 0.07 0.08 0.08 0.07
0.00 0.00 0.00 0.00 0.00 0.00 0.00 0.00 0.00 0.00 0.00 0.00 0.00 0.00 0.00 0.00 0.00 0.00 0.00 0.00 0.01 0.01 0.01 0.01 0.03 0.03 0.02 0.03 0.03 0.04 0.06 0.07 0.07 0.06 0.07 0.06 0.06 0.05 0.04 0.05 0.05 0.06 0.06 0.07 0.07 0.07 0.07 0.06 0.06
0.00 0.00 0.00 0.00 0.00 0.00 0.00 0.00 0.00 0.00 0.00 0.00 0.00 0.00 0.00 0.00 0.00 0.00 0.00 0.00 0.01 0.00 0.01 0.02 0.03 0.03 0.03 0.03 0.02 0.03 0.03 0.04 0.05 0.06 0.07 0.07 0.05 0.04 0.04 0.04 0.04 0.04 0.05 0.07 0.07 0.06 0.06 0.06 0.08
MSLP
1006.87 1007.49 1008.36 1009.37 1010.39 1011.29 1012.00 1012.48 1012.73 1012.84 1012.87 1012.92 1013.03 1013.22 1013.44 1013.67 1013.82 1013.86 1013.78 1013.60 1013.38 1013.19 1013.07 1013.07 1013.17 1013.34 1013.52 1013.64 1013.67 1013.59 1013.41 1013.19 1012.99 1012.84 1012.78 1012.80 1012.88 1012.99 1013.08 1013.13 1013.14 1013.13 1013.13 1013.19 1013.32 1013.52 1013.77 1014.02 1014.24
1006.94 1007.77 1008.83 1009.99 1011.09 1012.01 1012.67 1013.04 1013.16 1013.11 1013.01 1012.95 1012.98 1013.13 1013.36 1013.61 1013.81 1013.91 1013.88 1013.74 1013.56 1013.38 1013.27 1013.27 1013.38 1013.56 1013.75 1013.90 1013.96 1013.92 1013.78 1013.60 1013.42 1013.29 1013.23 1013.25 1013.32 1013.41 1013.48 1013.52 1013.53 1013.55 1013.59 1013.69 1013.87 1014.11 1014.39 1014.65 1014.84
1007.14 1008.15 1009.36 1010.60 1011.74 1012.63 1013.21 1013.47 1013.46 1013.29 1013.08 1012.93 1012.93 1013.06 1013.30 1013.59 1013.83 1013.96 1013.96 1013.86 1013.69 1013.52 1013.43 1013.44 1013.56 1013.76 1013.98 1014.16 1014.27 1014.27 1014.19 1014.05 1013.90 1013.79 1013.74 1013.75 1013.80 1013.86 1013.91 1013.95 1013.97 1014.00 1014.08 1014.22 1014.44 1014.71 1015.00 1015.25 1015.41
1007.47 1008.60 1009.88 1011.15 1012.26 1013.09 1013.57 1013.71 1013.60 1013.35 1013.08 1012.91 1012.89 1013.04 1013.31 1013.62 1013.88 1014.03 1014.05 1013.95 1013.79 1013.63 1013.55 1013.57 1013.71 1013.94 1014.19 1014.42 1014.57 1014.63 1014.59 1014.50 1014.39 1014.31 1014.27 1014.28 1014.31 1014.36 1014.40 1014.43 1014.46 1014.51 1014.61 1014.78 1015.02 1015.30 1015.57 1015.78 1015.90
1007.88 1009.07 1010.36 1011.59 1012.62 1013.34 1013.72 1013.77 1013.59 1013.30 1013.03 1012.88 1012.90 1013.09 1013.38 1013.71 1013.98 1014.13 1014.14 1014.04 1013.88 1013.73 1013.65 1013.70 1013.87 1014.12 1014.40 1014.67 1014.86 1014.96 1014.97 1014.92 1014.85 1014.80 1014.79 1014.80 1014.85 1014.89 1014.93 1014.96 1015.00 1015.06 1015.17 1015.34 1015.57 1015.83 1016.06 1016.22 1016.27
1008.35 1009.53 1010.75 1011.88 1012.79 1013.39 1013.67 1013.66 1013.45 1013.18 1012.96 1012.87 1012.96 1013.20 1013.54 1013.88 1014.15 1014.29 1014.28 1014.16 1013.99 1013.85 1013.79 1013.85 1014.04 1014.31 1014.62 1014.90 1015.11 1015.24 1015.29 1015.28 1015.25 1015.23 1015.25 1015.30 1015.36 1015.42 1015.47 1015.51 1015.55 1015.61 1015.71 1015.86 1016.05 1016.26 1016.43 1016.52 1016.51
1008.83 1009.93 1011.04 1012.02 1012.78 1013.26 1013.44 1013.40 1013.21 1013.00 1012.87 1012.89 1013.07 1013.39 1013.76 1014.12 1014.38 1014.49 1014.46 1014.33 1014.15 1014.01 1013.97 1014.04 1014.25 1014.53 1014.84 1015.12 1015.33 1015.46 1015.52 1015.54 1015.54 1015.57 1015.63 1015.72 1015.82 1015.91 1015.98 1016.02 1016.05 1016.10 1016.17 1016.27 1016.41 1016.54 1016.64 1016.66 1016.59
1009.31 1010.28 1011.22 1012.03 1012.63 1012.98 1013.10 1013.05 1012.92 1012.81 1012.80 1012.94 1013.22 1013.61 1014.03 1014.39 1014.64 1014.73 1014.68 1014.53 1014.36 1014.23 1014.20 1014.29 1014.50 1014.77 1015.06 1015.32 1015.51 1015.63 1015.68 1015.71 1015.74 1015.80 1015.90 1016.04 1016.18 1016.30 1016.39 1016.45 1016.47 1016.48 1016.51 1016.56 1016.62 1016.68 1016.70 1016.66 1016.56
1009.75 1010.57 1011.32 1011.95 1012.40 1012.64 1012.71 1012.68 1012.62 1012.62 1012.74 1013.00 1013.39 1013.84 1014.29 1014.65 1014.88 1014.95 1014.89 1014.74 1014.59 1014.48 1014.47 1014.58 1014.78 1015.04 1015.29 1015.51 1015.66 1015.74 1015.77 1015.79 1015.84 1015.94 1016.08 1016.26 1016.44 1016.60 1016.71 1016.76 1016.77 1016.75 1016.73 1016.71 1016.70 1016.69 1016.65 1016.56 1016.43
1010.16 1010.80 1011.38 1011.83 1012.13 1012.29 1012.34 1012.34 1012.35 1012.47 1012.70 1013.07 1013.53 1014.03 1014.50 1014.86 1015.07 1015.13 1015.07 1014.94 1014.81 1014.73 1014.75 1014.87 1015.07 1015.31 1015.52 1015.69 1015.78 1015.82 1015.82 1015.83 1015.88 1016.00 1016.18 1016.39 1016.61 1016.79 1016.92 1016.98 1016.97 1016.92 1016.85 1016.77 1016.70 1016.63 1016.54 1016.42 1016.27
1010.53 1011.02 1011.42 1011.72 1011.91 1011.99 1012.03 1012.06 1012.15 1012.35 1012.68 1013.12 1013.63 1014.16 1014.62 1014.97 1015.17 1015.23 1015.18 1015.08 1014.99 1014.96 1015.01 1015.16 1015.36 1015.56 1015.74 1015.85 1015.90 1015.89 1015.86 1015.85 1015.91 1016.03 1016.23 1016.47 1016.71 1016.92 1017.05 1017.11 1017.09 1017.01 1016.91 1016.79 1016.68 1016.57 1016.44 1016.30 1016.15
1010.87 1011.22 1011.48 1011.66 1011.75 1011.79 1011.81 1011.88 1012.02 1012.28 1012.67 1013.14 1013.67 1014.19 1014.64 1014.97 1015.16 1015.22 1015.20 1015.14 1015.10 1015.13 1015.23 1015.40 1015.60 1015.79 1015.94 1016.01 1016.02 1015.97 1015.91 1015.89 1015.94 1016.07 1016.28 1016.52 1016.78 1016.99 1017.14 1017.19 1017.17 1017.09 1016.97 1016.84 1016.70 1016.57 1016.43 1016.28 1016.12
1011.19 1011.43 1011.58 1011.67 1011.70 1011.70 1011.72 1011.80 1011.97 1012.26 1012.66 1013.14 1013.65 1014.14 1014.56 1014.87 1015.05 1015.13 1015.14 1015.14 1015.16 1015.24 1015.38 1015.58 1015.80 1015.99 1016.12 1016.17 1016.14 1016.08 1016.00 1015.97 1016.01 1016.13 1016.33 1016.58 1016.83 1017.05 1017.20 1017.26 1017.25 1017.18 1017.07 1016.94 1016.81 1016.68 1016.53 1016.38 1016.21
1011.50 1011.66 1011.74 1011.76 1011.75 1011.73 1011.74 1011.82 1012.00 1012.28 1012.65 1013.10 1013.57 1014.01 1014.39 1014.68 1014.87 1014.97 1015.02 1015.07 1015.15 1015.28 1015.47 1015.70 1015.93 1016.13 1016.26 1016.30 1016.28 1016.20 1016.12 1016.08 1016.11 1016.22 1016.41 1016.64 1016.88 1017.09 1017.24 1017.32 1017.33 1017.29 1017.21 1017.12 1017.01 1016.89 1016.76 1016.60 1016.41
1011.81 1011.92 1011.95 1011.94 1011.90 1011.86 1011.87 1011.93 1012.08 1012.32 1012.65 1013.04 1013.44 1013.84 1014.18 1014.45 1014.65 1014.78 1014.88 1014.98 1015.11 1015.29 1015.51 1015.77 1016.01 1016.22 1016.36 1016.41 1016.40 1016.34 1016.26 1016.22 1016.24 1016.33 1016.49 1016.69 1016.91 1017.11 1017.26 1017.36 1017.41 1017.41 1017.38 1017.33 1017.26 1017.18 1017.06 1016.90 1016.70
1012.13 1012.20 1012.21 1012.18 1012.14 1012.09 1012.07 1012.11 1012.21 1012.39 1012.64 1012.95 1013.29 1013.62 1013.93 1014.19 1014.40 1014.57 1014.71 1014.86 1015.04 1015.25 1015.50 1015.77 1016.03 1016.25 1016.41 1016.48 1016.49 1016.45 1016.39 1016.35 1016.35 1016.41 1016.54 1016.71 1016.89 1017.08 1017.24 1017.36 1017.44 1017.49 1017.52 1017.52 1017.51 1017.46 1017.38 1017.23 1017.02
1012.46 1012.51 1012.52 1012.50 1012.45 1012.39 1012.35 1012.33 1012.37 1012.46 1012.62 1012.83 1013.09 1013.36 1013.64 1013.90 1014.12 1014.33 1014.52 1014.71 1014.93 1015.17 1015.43 1015.71 1015.98 1016.22 1016.39 1016.50 1016.53 1016.52 1016.48 1016.44 1016.43 1016.46 1016.55 1016.67 1016.83 1016.99 1017.14 1017.28 1017.40 1017.50 1017.58 1017.65 1017.68 1017.68 1017.63 1017.50 1017.30
1012.79 1012.85 1012.87 1012.86 1012.82 1012.75 1012.67 1012.59 1012.53 1012.52 1012.56 1012.66 1012.82 1013.03 1013.27 1013.52 1013.78 1014.02 1014.25 1014.49 1014.74 1015.00 1015.28 1015.57 1015.84 1016.09 1016.29 1016.43 1016.51 1016.53 1016.51 1016.47 1016.45 1016.46 1016.50 1016.58 1016.70 1016.83 1016.98 1017.13 1017.28 1017.42 1017.55 1017.66 1017.74 1017.78 1017.76 1017.67 1017.50
1013.11 1013.20 1013.25 1013.27 1013.24 1013.17 1013.04 1012.88 1012.70 1012.55 1012.44 1012.41 1012.46 1012.58 1012.78 1013.02 1013.30 1013.58 1013.86 1014.14 1014.43 1014.71 1015.01 1015.31 1015.60 1015.87 1016.10 1016.28 1016.40 1016.46 1016.47 1016.44 1016.41 1016.39 1016.40 1016.44 1016.52 1016.63 1016.77 1016.92 1017.09 1017.25 1017.41 1017.55 1017.66 1017.74 1017.75 1017.70 1017.58
1013.42 1013.54 1013.65 1013.72 1013.71 1013.62 1013.44 1013.18 1012.87 1012.55 1012.27 1012.07 1011.98 1012.00 1012.13 1012.35 1012.64 1012.95 1013.28 1013.61 1013.94 1014.26 1014.58 1014.91 1015.23 1015.53 1015.81 1016.03 1016.20 1016.31 1016.35 1016.35 1016.33 1016.29 1016.27 1016.28 1016.33 1016.41 1016.54 1016.69 1016.86 1017.03 1017.20 1017.35 1017.48 1017.57 1017.61 1017.60 1017.53
1013.68 1013.87 1014.06 1014.19 1014.21 1014.11 1013.87 1013.49 1013.02 1012.51 1012.03 1011.64 1011.38 1011.27 1011.31 1011.49 1011.77 1012.11 1012.49 1012.87 1013.25 1013.62 1013.98 1014.35 1014.71 1015.07 1015.40 1015.69 1015.92 1016.09 1016.18 1016.21 1016.20 1016.16 1016.13 1016.12 1016.14 1016.21 1016.32 1016.47 1016.63 1016.80 1016.96 1017.10 1017.22 1017.31 1017.37 1017.40 1017.38
1013.88 1014.17 1014.45 1014.65 1014.73 1014.62 1014.31 1013.81 1013.17 1012.46 1011.75 1011.14 1010.69 1010.42 1010.35 1010.46 1010.72 1011.07 1011.48 1011.92 1012.36 1012.79 1013.21 1013.64 1014.07 1014.49 1014.89 1015.25 1015.56 1015.80 1015.95 1016.02 1016.04 1016.01 1015.98 1015.96 1015.98 1016.04 1016.14 1016.27 1016.43 1016.59 1016.73 1016.86 1016.96 1017.04 1017.10 1017.14 1017.16
1014.01 1014.41 1014.80 1015.10 1015.22 1015.11 1014.74 1014.12 1013.31 1012.39 1011.47 1010.63 1009.97 1009.52 1009.32 1009.34 1009.56 1009.91 1010.35 1010.83 1011.32 1011.82 1012.32 1012.82 1013.32 1013.82 1014.30 1014.75 1015.13 1015.44 1015.66 1015.78 1015.83 1015.83 1015.81 1015.80 1015.82 1015.87 1015.97 1016.11 1016.26 1016.41 1016.54 1016.65 1016.73 1016.79 1016.84 1016.89 1016.93
1014.06 1014.58 1015.08 1015.46 1015.64 1015.53 1015.12 1014.40 1013.44 1012.34 1011.20 1010.16 1009.29 1008.67 1008.33 1008.25 1008.41 1008.74 1009.18 1009.70 1010.24 1010.80 1011.36 1011.93 1012.51 1013.08 1013.65 1014.17 1014.64 1015.02 1015.30 1015.47 1015.56 1015.59 1015.59 1015.58 1015.61 1015.67 1015.79 1015.93 1016.09 1016.25 1016.39 1016.49 1016.56 1016.61 1016.64 1016.68 1016.74
1014.02 1014.65 1015.25 1015.71 1015.94 1015.84 1015.40 1014.61 1013.54 1012.29 1010.99 1009.77 1008.74 1007.96 1007.49 1007.30 1007.39 1007.68 1008.11 1008.64 1009.21 1009.81 1010.43 1011.05 1011.69 1012.34 1012.97 1013.56 1014.09 1014.53 1014.86 1015.08 1015.20 1015.25 1015.26 1015.27 1015.30 1015.39 1015.52 1015.69 1015.88 1016.07 1016.23 1016.36 1016.44 1016.49 1016.53 1016.57 1016.62
1013.90 1014.60 1015.26 1015.79 1016.05 1015.97 1015.52 1014.70 1013.57 1012.24 1010.84 1009.50 1008.35 1007.46 1006.87 1006.60 1006.61 1006.85 1007.25 1007.76 1008.33 1008.95 1009.59 1010.25 1010.93 1011.62 1012.30 1012.93 1013.51 1013.98 1014.34 1014.59 1014.72 1014.78 1014.80 1014.81 1014.86 1014.96 1015.12 1015.34 1015.58 1015.83 1016.05 1016.23 1016.36 1016.45 1016.50 1016.55 1016.60
1013.69 1014.41 1015.11 1015.65 1015.93 1015.87 1015.43 1014.62 1013.49 1012.14 1010.72 1009.34 1008.13 1007.18 1006.53 1006.18 1006.13 1006.31 1006.66 1007.13 1007.68 1008.28 1008.92 1009.59 1010.28 1010.98 1011.68 1012.33 1012.92 1013.41 1013.77 1014.02 1014.15 1014.20 1014.21 1014.22 1014.27 1014.40 1014.60 1014.87 1015.18 1015.52 1015.83 1016.10 1016.31 1016.47 1016.57 1016.64 1016.70
1013.39 1014.09 1014.76 1015.28 1015.56 1015.51 1015.10 1014.33 1013.26 1011.97 1010.59 1009.26 1008.07 1007.11 1006.44 1006.05 1005.95 1006.07 1006.36 1006.78 1007.29 1007.85 1008.45 1009.10 1009.77 1010.46 1011.14 1011.79 1012.36 1012.84 1013.19 1013.42 1013.52 1013.55 1013.54 1013.54 1013.59 1013.74 1013.97 1014.31 1014.71 1015.15 1015.58 1015.97 1016.29 1016.54 1016.72 1016.83 1016.91
1013.03 1013.65 1014.24 1014.70 1014.94 1014.90 1014.52 1013.83 1012.85 1011.68 1010.42 1009.19 1008.09 1007.19 1006.54 1006.15 1006.01 1006.09 1006.32 1006.68 1007.13 1007.64 1008.20 1008.80 1009.44 1010.09 1010.75 1011.36 1011.91 1012.35 1012.67 1012.86 1012.93 1012.93 1012.89 1012.87 1012.92 1013.08 1013.36 1013.76 1014.25 1014.79 1015.35 1015.87 1016.32 1016.68 1016.95 1017.13 1017.24
1012.64 1013.13 1013.60 1013.96 1014.14 1014.08 1013.75 1013.14 1012.30 1011.28 1010.18 1009.11 1008.13 1007.33 1006.74 1006.37 1006.22 1006.26 1006.45 1006.76 1007.15 1007.60 1008.11 1008.67 1009.27 1009.89 1010.50 1011.08 1011.59 1012.00 1012.28 1012.43 1012.47 1012.43 1012.37 1012.34 1012.38 1012.55 1012.87 1013.32 1013.90 1014.55 1015.22 1015.86 1016.44 1016.91 1017.27 1017.51 1017.67
Thickness
5851 5855 5856 5850 5838 5817 5796 5798 5804 5800 5798 5802 5803 5799 5790 5783 5778 5765 5781 5789 5789 5788 5784 5780 5777 5777 5777 5776 5776 5775 5775 5775 5774 5774 5773 5772 5771 5770 5768 5767 5766 5765 5764 5763 5762 5760 5759 5757 5755
5862 5860 5855 5851 5829 5800 5790 5801 5799 5800 5803 5806 5803 5799 5791 5782 5785 5783 5785 5788 5790 5788 5785 5780 5776 5775 5775 5775 5774 5774 5773 5773 5772 5771 5770 5770 5769 5767 5767 5766 5765 5763 5762 5761 5760 5758 5757 5755 5754
5865 5863 5855 5844 5818 5802 5793 5802 5801 5806 5810 5807 5799 5798 5789 5781 5784 5785 5788 5790 5790 5788 5784 5777 5775 5774 5773 5773 5772 5772 5771 5770 5770 5769 5768 5768 5766 5765 5764 5764 5763 5762 5760 5759 5757 5756 5755 5753 5752
5866 5862 5858 5835 5809 5810 5810 5809 5811 5807 5807 5808 5803 5791 5788 5789 5790 5790 5791 5792 5790 5788 5784 5777 5773 5772 5772 5771 5770 5770 5769 5768 5768 5768 5767 5766 5765 5764 5763 5762 5760 5759 5758 5756 5755 5754 5753 5751 5750
5870 5861 5841 5821 5812 5815 5820 5819 5818 5808 5803 5804 5802 5787 5781 5789 5794 5793 5792 5792 5790 5788 5784 5777 5772 5771 5770 5769 5768 5767 5766 5766 5765 5765 5765 5764 5763 5762 5760 5759 5758 5757 5756 5754 5753 5752 5751 5750 5749
5865 5860 5832 5813 5810 5817 5821 5823 5819 5810 5805 5804 5801 5790 5781 5790 5791 5792 5793 5791 5791 5788 5784 5777 5771 5770 5768 5767 5766 5765 5764 5763 5763 5763 5762 5762 5761 5759 5758 5757 5756 5755 5754 5753 5752 5750 5749 5749 5748
5858 5849 5829 5823 5815 5815 5820 5827 5819 5812 5806 5805 5807 5792 5784 5788 5792 5793 5791 5790 5790 5787 5784 5780 5776 5771 5768 5766 5765 5763 5762 5761 5761 5760 5760 5759 5758 5756 5755 5754 5753 5753 5752 5751 5750 5749 5748 5747 5746
5868 5854 5833 5828 5821 5815 5825 5827 5825 5818 5808 5815 5813 5796 5786 5790 5795 5795 5791 5789 5787 5785 5783 5781 5778 5774 5772 5768 5764 5762 5761 5760 5758 5758 5757 5756 5755 5754 5753 5753 5751 5751 5750 5749 5749 5748 5747 5746 5745
5869 5848 5829 5830 5827 5823 5830 5825 5825 5829 5818 5814 5815 5811 5805 5801 5798 5793 5788 5786 5783 5783 5782 5781 5778 5775 5774 5771 5766 5764 5761 5759 5758 5757 5756 5756 5757 5756 5754 5752 5750 5749 5749 5748 5748 5747 5747 5746 5746
5861 5840 5834 5841 5843 5836 5833 5830 5826 5822 5812 5808 5807 5807 5805 5801 5796 5791 5787 5784 5782 5780 5781 5781 5779 5777 5775 5772 5768 5767 5765 5761 5760 5758 5757 5757 5755 5755 5754 5749 5749 5748 5748 5747 5747 5747 5748 5749 5750
5856 5842 5844 5847 5849 5846 5837 5833 5834 5824 5812 5813 5807 5803 5803 5799 5796 5792 5789 5787 5784 5782 5781 5781 5778 5776 5776 5773 5771 5769 5766 5763 5761 5758 5757 5756 5757 5756 5755 5752 5751 5750 5749 5751 5749 5751 5753 5753 5752
5850 5848 5849 5849 5850 5846 5839 5836 5831 5828 5824 5828 5822 5813 5806 5800 5797 5794 5790 5788 5786 5784 5782 5781 5778 5775 5773 5773 5772 5769 5768 5765 5763 5759 5758 5758 5757 5756 5755 5754 5753 5753 5752 5751 5753 5752 5752 5752 5753
5845 5846 5850 5851 5851 5848 5843 5836 5831 5827 5831 5830 5823 5814 5807 5804 5801 5799 5796 5792 5787 5783 5782 5780 5777 5775 5773 5770 5771 5770 5768 5767 5763 5760 5758 5757 5757 5756 5755 5753 5752 5755 5754 5753 5752 5752 5751 5751 5752
5847 5847 5848 5849 5848 5845 5837 5834 5830 5825 5830 5824 5817 5812 5810 5807 5803 5800 5796 5791 5788 5785 5783 5781 5778 5775 5772 5771 5769 5769 5768 5764 5764 5762 5759 5757 5757 5756 5754 5753 5752 5753 5753 5754 5752 5753 5752 5752 5752
5850 5842 5842 5844 5844 5843 5839 5825 5826 5830 5829 5820 5816 5813 5810 5808 5806 5801 5798 5794 5792 5788 5786 5781 5778 5776 5773 5771 5770 5770 5769 5767 5765 5762 5759 5757 5757 5755 5754 5755 5754 5754 5753 5751 5752 5752 5752 5752 5753
5845 5837 5828 5836 5842 5842 5834 5817 5828 5834 5828 5819 5817 5814 5810 5808 5807 5806 5802 5798 5795 5791 5787 5783 5782 5778 5774 5772 5770 5771 5770 5767 5765 5763 5761 5758 5757 5756 5755 5755 5755 5753 5753 5753 5753 5753 5753 5753 5753
5831 5826 5827 5828 5840 5839 5833 5824 5830 5834 5828 5820 5817 5815 5812 5809 5808 5807 5805 5802 5798 5793 5789 5785 5783 5780 5777 5774 5771 5770 5767 5765 5764 5763 5762 5760 5758 5757 5756 5756 5755 5754 5754 5754 5755 5754 5753 5752 5752
5823 5827 5825 5825 5834 5834 5830 5828 5831 5832 5829 5824 5821 5818 5814 5811 5809 5810 5808 5806 5801 5797 5792 5787 5784 5781 5778 5776 5772 5771 5768 5767 5766 5764 5762 5760 5758 5757 5757 5756 5754 5755 5755 5753 5752 5751 5751 5751 5752
5834 5829 5824 5827 5836 5830 5827 5827 5831 5832 5828 5825 5823 5820 5816 5814 5817 5815 5811 5808 5804 5799 5794 5789 5785 5783 5780 5777 5774 5771 5769 5769 5768 5766 5763 5761 5759 5759 5757 5757 5755 5754 5754 5753 5753 5752 5752 5751 5753
5825 5820 5821 5823 5829 5828 5825 5826 5834 5833 5829 5830 5826 5823 5822 5819 5817 5815 5813 5810 5806 5801 5797 5792 5789 5786 5783 5780 5777 5774 5772 5771 5771 5769 5765 5762 5761 5760 5760 5758 5757 5756 5753 5753 5752 5751 5752 5753 5754
5818 5818 5819 5817 5821 5827 5822 5819 5825 5832 5834 5833 5832 5830 5829 5825 5821 5817 5814 5812 5809 5805 5801 5799 5794 5791 5787 5784 5780 5777 5773 5771 5770 5768 5766 5764 5762 5761 5760 5759 5758 5757 5756 5754 5753 5753 5751 5751 5753
5808 5824 5822 5816 5811 5813 5816 5808 5822 5829 5827 5829 5831 5832 5832 5831 5828 5824 5819 5815 5812 5810 5807 5803 5798 5793 5790 5785 5782 5778 5773 5770 5770 5769 5769 5766 5764 5762 5761 5760 5759 5757 5757 5755 5755 5756 5754 5751 5750
5815 5821 5818 5816 5812 5812 5814 5808 5822 5830 5823 5829 5834 5836 5837 5837 5834 5829 5825 5821 5818 5815 5810 5805 5799 5795 5791 5788 5784 5779 5777 5775 5774 5772 5768 5766 5765 5763 5762 5760 5759 5758 5757 5756 5756 5755 5754 5753 5751
5812 5810 5807 5810 5811 5791 5806 5804 5810 5829 5828 5833 5838 5840 5840 5840 5838 5834 5831 5826 5821 5818 5813 5808 5801 5796 5793 5789 5786 5782 5778 5775 5773 5769 5768 5766 5766 5764 5763 5761 5759 5758 5757 5756 5756 5755 5754 5752 5751
5804 5795 5779 5776 5779 5788 5809 5802 5813 5834 5839 5838 5838 5840 5843 5843 5839 5835 5830 5826 5821 5818 5814 5810 5804 5797 5794 5791 5787 5784 5780 5776 5772 5770 5767 5765 5765 5764 5762 5761 5758 5758 5757 5756 5755 5754 5754 5752 5750
5799 5801 5784 5773 5777 5793 5797 5798 5822 5838 5842 5843 5843 5843 5842 5843 5841 5836 5833 5829 5824 5819 5815 5811 5804 5798 5795 5792 5788 5785 5781 5778 5775 5771 5768 5766 5764 5764 5762 5760 5758 5757 5757 5756 5755 5755 5754 5752 5750
5792 5799 5815 5800 5795 5791 5799 5807 5822 5834 5834 5837 5838 5838 5839 5841 5840 5837 5835 5831 5826 5820 5816 5811 5805 5799 5795 5792 5788 5784 5780 5777 5774 5771 5768 5766 5763 5762 5760 5758 5757 5756 5756 5755 5755 5754 5752 5751 5750
5804 5805 5795 5788 5772 5772 5788 5795 5808 5819 5825 5831 5833 5834 5836 5839 5839 5836 5834 5829 5825 5821 5816 5811 5805 5799 5795 5791 5787 5784 5780 5776 5773 5770 5766 5763 5762 5759 5757 5756 5755 5754 5754 5754 5754 5753 5752 5749 5748
5784 5789 5793 5792 5792 5779 5777 5794 5827 5824 5827 5828 5832 5834 5835 5835 5835 5833 5830 5826 5823 5819 5814 5808 5802 5797 5793 5790 5786 5782 5778 5775 5771 5768 5765 5762 5760 5758 5756 5755 5754 5753 5753 5753 5752 5751 5749 5747 5745
5793 5792 5790 5778 5774 5785 5790 5800 5829 5829 5830 5831 5831 5832 5833 5832 5832 5830 5826 5822 5818 5814 5809 5804 5800 5795 5791 5787 5783 5779 5775 5773 5769 5766 5763 5761 5758 5756 5755 5754 5753 5752 5751 5750 5749 5747 5745 5743 5741